Location: Area 52 Observatory
(34.2620°N, 119.2590°W)
Time: 17:04:06
(UTC-07:00)

Envisat - Visible Passes

Search period start: 16 October 2019 00:00
Search period end: 26 October 2019 00:00
Orbit: 764 x 766 km, 98.1° (Epoch: 16 October)

Date Brightness Start Highest point End Pass type
(mag) Time Alt. Az. Time Alt. Az. Time Alt. Az.
16 Oct 4.2 19:37:35 10° S 19:42:24 44° W 19:47:16 10° NNW visible
17 Oct 2.9 19:00:35 10° SSE 19:05:38 76° ENE 19:10:43 10° N visible
18 Oct 5.3 20:03:57 10° SSW 20:08:01 24° W 20:12:07 10° NW visible
19 Oct 6.4 06:38:25 10° ENE 06:41:10 15° E 06:43:54 10° SE visible
19 Oct 3.6 19:26:09 10° S 19:31:07 58° W 19:36:08 10° NNW visible
20 Oct 3.0 18:49:26 10° SSE 18:54:24 58° ENE 18:59:24 10° N visible
20 Oct 6.1 20:31:30 10° WSW 20:33:44 13° W 20:35:58 10° WNW visible
21 Oct 4.9 19:52:14 10° SSW 19:56:42 31° W 20:01:11 10° NW visible
22 Oct 6.7 06:28:34 10° ENE 06:29:48 11° E 06:31:01 10° ESE visible
22 Oct 3.2 19:14:47 10° S 19:19:51 76° WSW 19:24:57 10° NNW visible
23 Oct 3.3 18:38:23 10° SE 18:43:11 45° ENE 18:48:01 10° N visible
23 Oct 5.8 20:19:08 10° SW 20:22:22 17° W 20:25:37 10° NW visible
24 Oct 4.4 19:40:39 10° SSW 19:45:23 40° W 19:50:10 10° NNW visible
25 Oct 2.9 19:03:32 10° SSE 19:08:36 84° ENE 19:13:41 10° N visible
